Change the Weather History Date:

Monday, October 8, 2012

  Actual Average (KMRH) Record (KMRH)
Temperature  
Mean Temperature 67 °F -  
Max Temperature 72 °F 77 °F 89 °F (2007)
Min Temperature 62 °F 55 °F 41 °F (1988)
Cooling Degree Days 2    
Growing Degree Days 17 (Base 50)    
Moisture  
Dew Point 62 °F    
Average Humidity 84    
Maximum Humidity 94    
Minimum Humidity 75    
Precipitation  
Precipitation 0.10 in - - ()
Sea Level Pressure  
Sea Level Pressure 30.08 in    
Wind  
Wind Speed 13 mph (NNE)    
Max Wind Speed 17 mph    
Max Gust Speed 23 mph    
Visibility 10 miles    
Events Rain    
Averages and records for this station are not official NWS values.
T = Trace of Precipitation, MM = Missing Value Source: NWS Daily Summary

Daily Weather History Graph

Daily Weather History Graph

Search for Another Location

Airport or City:

Trip Planner

Search our weather history database for the weather conditions in past years. The results will help you decide how hot, cold, wet, or windy it might be!

Date:

Astronomy

Oct. 08, 2012 Rise Set
Actual Time 7:06 AM EDT 6:39 PM EDT
Civil Twilight 6:41 AM EDT 7:04 PM EDT
Nautical Twilight 6:11 AM EDT 7:34 PM EDT
Astronomical Twilight 5:42 AM EDT 8:03 PM EDT
Moon No Moon Rise 2:13 PM EDT (10/8)
Length of Visible Light 12h 23m
Length of Day
11h 33m
Waning Gibbous, 46% of the Moon is Illuminated
Oct 8
Waning Gibbous
Oct 15
New
Oct 21
First Quarter
Oct 29
Full
Nov 6
Last Quarter

Hourly Weather History & Observations

Time (EDT) Temp. Dew Point Humidity Pressure Visibility Wind Dir Wind Speed Gust Speed Precip Events Conditions
12:56 AM 63.0 °F 59.0 °F 87% 30.11 in 10.0 mi North 12.7 mph - N/A   Overcast
1:56 AM 62.1 °F 57.9 °F 86% 30.10 in 10.0 mi North 15.0 mph 21.9 mph N/A   Overcast
2:56 AM 62.1 °F 57.0 °F 84% 30.10 in 10.0 mi North 15.0 mph 20.7 mph N/A   Overcast
3:56 AM 62.1 °F 57.0 °F 84% 30.13 in 10.0 mi North 11.5 mph 17.3 mph N/A   Overcast
4:56 AM 63.0 °F 57.9 °F 84% 30.11 in 10.0 mi North 11.5 mph - N/A   Overcast
5:31 AM 64.4 °F 59.0 °F 83% 30.10 in 10.0 mi NNE 13.8 mph - N/A   Overcast
5:56 AM 63.0 °F 57.9 °F 84% 30.12 in 10.0 mi NNE 11.5 mph 18.4 mph N/A   Overcast
6:56 AM 64.9 °F 59.0 °F 81% 30.14 in 10.0 mi NNE 13.8 mph - N/A   Overcast
7:11 AM 64.4 °F 57.2 °F 77% 30.13 in 10.0 mi NNE 12.7 mph - N/A   Overcast
7:56 AM 66.0 °F 57.9 °F 75% 30.16 in 10.0 mi NE 16.1 mph 23.0 mph N/A   Overcast
8:56 AM 66.0 °F 59.0 °F 78% 30.18 in 10.0 mi NNE 15.0 mph 23.0 mph N/A   Overcast
9:56 AM 66.9 °F 60.1 °F 79% 30.17 in 10.0 mi NNE 12.7 mph 21.9 mph N/A   Overcast
10:56 AM 68.0 °F 61.0 °F 78% 30.16 in 10.0 mi NNE 15.0 mph 21.9 mph N/A   Overcast
11:56 AM 70.0 °F 62.1 °F 76% 30.14 in 10.0 mi NE 15.0 mph - N/A   Overcast
12:56 PM 70.0 °F 63.0 °F 78% 30.12 in 10.0 mi NE 13.8 mph - N/A   Overcast
1:56 PM 71.1 °F 64.0 °F 78% 30.09 in 10.0 mi NE 16.1 mph 21.9 mph N/A   Overcast
2:56 PM 71.1 °F 64.0 °F 78% 30.06 in 10.0 mi NE 12.7 mph 21.9 mph N/A   Overcast
3:28 PM 71.6 °F 64.4 °F 78% 30.05 in 10.0 mi NE 12.7 mph - N/A   Overcast
3:56 PM 71.1 °F 64.0 °F 78% 30.06 in 10.0 mi NE 12.7 mph - N/A   Overcast
4:56 PM 72.0 °F 66.0 °F 81% 30.04 in 10.0 mi NNE 13.8 mph - N/A   Overcast
5:56 PM 69.1 °F 66.0 °F 90% 30.05 in 10.0 mi North 8.1 mph 17.3 mph 0.01 in   Mostly Cloudy
6:12 PM 69.8 °F 64.4 °F 83% 30.03 in 10.0 mi North 10.4 mph - N/A   Mostly Cloudy
6:44 PM 68.0 °F 64.4 °F 88% 30.03 in 10.0 mi North 13.8 mph 19.6 mph 0.00 in   Mostly Cloudy
6:56 PM 68.0 °F 64.0 °F 87% 30.04 in 10.0 mi North 15.0 mph - 0.00 in   Mostly Cloudy
7:06 PM 68.0 °F 64.4 °F 88% 30.04 in 10.0 mi North 13.8 mph 23.0 mph N/A   Mostly Cloudy
7:32 PM 68.0 °F 64.4 °F 88% 30.03 in 10.0 mi North 13.8 mph - N/A   Overcast
7:56 PM 68.0 °F 64.0 °F 87% 30.05 in 10.0 mi North 12.7 mph 18.4 mph N/A   Overcast
8:56 PM 66.9 °F 63.0 °F 87% 30.07 in 10.0 mi North 17.3 mph 23.0 mph N/A   Overcast
9:03 PM 66.2 °F 62.6 °F 88% 30.06 in 10.0 mi North 15.0 mph 23.0 mph N/A   Overcast
9:56 PM 66.9 °F 63.0 °F 87% 30.10 in 10.0 mi North 10.4 mph 19.6 mph 0.07 in Rain Light Rain
10:49 PM 68.0 °F 64.4 °F 88% 30.04 in 9.0 mi NE 15.0 mph 21.9 mph 0.02 in Rain Light Rain
10:56 PM 68.0 °F 66.0 °F 93% 30.05 in 10.0 mi NE 16.1 mph 21.9 mph 0.02 in Rain Light Rain
11:10 PM 68.0 °F 66.2 °F 94% 30.04 in 10.0 mi ENE 13.8 mph - 0.00 in Rain Light Rain
11:48 PM 69.8 °F 66.2 °F 88% 30.02 in 10.0 mi NE 13.8 mph - 0.00 in   Scattered Clouds
11:56 PM 70.0 °F 66.0 °F 87% 30.05 in 10.0 mi ENE 10.4 mph - 0.00 in   Mostly Cloudy